ラ・サグラ彗星

424P/La Sagra (2021)

English version
Home page
Updated on March 27, 2022

---------------------------------------------------------------------

・ プロフィール

符号 424P/2021 L5
検出日 2021年6月6日、7月3日
検出光度 20.6等、19.0等
検出者 Pan-STARRS 1 telescope (Haleakala), Hidetaka Sato (Tokyo, Japan)

・ 写真集

・ 軌道要素

Epoch 2022 Jan. 21.0 TT = JDT 2459600.5
T 2021 Oct. 31.63349 TT                                 Rudenko
q   1.3627086            (2000.0)            P               Q
n   0.10627915     Peri.  312.47474     +0.99137843     -0.05767592
a   4.4140508      Node    51.17801     +0.10762285     +0.87060139
e   0.6912793      Incl.    8.68560     -0.07474045     +0.48859667
P   9.27
From 619 observations 2012 Sept. 23-2022 Jan. 31, mean residual 0".5.

・ 星図

・ 光度変化

        H - 16.0  G = 0.15

---------------------------------------------------------------------

軌道要素はM.P.E.C. 2022-C56に掲載されたものです。
星図はステラナビゲータ Ver.10 (アストロアーツ) で作成したものです。
光度グラフはComet for Windowsで作成したものです。

---------------------------------------------------------------------

Copyright(C) Seiichi Yoshida (comet@aerith.net). All rights reserved.